RH
67 76 83 86 74 77 60 74 74 74 71 72 76 70 78 90 92 93 79 82 76 82 85 87 90 94 93 92 92 90 89 83 84 84 85 90 91 91 94 79 73 74 89
62 72 80 85 80 69 81 64 72 75 73 71 75 76 77 89 95 96 94 92 87 91 95 91 94 97 97 92 91 91 90 83 82 80 84 86 88 90 83 81 75 80 84
65 73 78 83 87 77 74 80 68 73 79 74 71 73 77 82 92 95 95 92 86 87 95 96 96 96 98 92 88 89 85 84 81 79 75 67 79 90 75 76 78 90 88
66 70 72 73 81 83 82 75 80 72 74 81 74 75 78 82 85 92 96 93 84 81 81 95 95 96 90 82 87 92 83 86 87 63 63 64 73 95 95 89 94 90 93
49 56 77 75 78 79 81 78 78 78 75 77 80 81 79 85 84 91 94 87 82 80 78 82 89 81 79 75 84 94 75 82 86 72 67 68 74 96 96 97 96 97 95
41 46 48 40 54 77 78 78 79 82 80 76 82 84 84 87 86 88 85 81 78 82 82 80 80 72 66 64 73 65 63 62 69 66 73 86 90 90 90 98 98 98 98
33 38 44 29 30 56 76 78 80 79 85 83 80 84 84 86 88 87 81 80 79 82 83 85 81 65 64 60 57 55 56 56 73 71 84 92 91 98 99 97 97 97 97
31 34 30 25 24 31 61 78 79 76 76 81 82 79 78 81 83 84 84 81 80 80 78 89 91 69 73 82 68 61 64 79 81 85 95 96 91 93 94 87 94 96 96
37 32 35 33 28 23 24 29 62 80 76 74 78 81 78 77 80 82 81 82 82 80 79 76 86 73 77 79 83 67 68 85 87 96 93 90 94 91 74 58 74 94 95
33 36 39 38 29 38 39 27 26 47 83 79 75 77 81 79 82 79 82 82 80 77 71 61 83 74 79 76 74 67 66 84 86 90 88 84 84 93 91 70 87 88 85
35 33 34 45 44 44 40 33 29 32 59 85 82 78 81 83 83 88 90 87 82 80 68 53 81 80 80 76 71 65 68 63 78 88 88 80 87 94 93 90 87 86 91
34 36 36 32 36 44 40 42 52 50 62 68 78 82 82 75 74 80 86 86 86 85 84 72 58 83 80 78 83 71 70 63 63 71 76 77 85 92 93 93 93 89 95
37 38 35 33 32 32 49 54 52 55 56 62 74 79 82 83 80 84 90 88 89 90 89 86 69 76 82 64 69 74 60 62 63 65 68 68 69 92 96 90 95 94 96
42 37 34 32 33 35 35 55 58 59 58 60 68 80 92 90 90 88 86 83 94 89 95 96 86 82 75 68 63 60 61 61 59 61 68 66 74 93 96 91 91 95 94
40 44 38 34 34 38 40 49 64 68 63 64 72 72 94 98 98 93 91 87 92 89 95 98 95 88 78 72 64 62 61 61 59 60 65 67 76 80 90 75 72 82 94
40 44 45 37 38 39 42 51 70 75 76 73 73 76 79 86 93 97 98 100 98 99 92 96 97 98 82 79 67 65 64 63 61 66 76 72 70 80 85 72 70 88 90
39 46 46 50 48 50 51 48 69 84 83 83 80 83 81 85 86 88 97 99 99 99 99 98 100 100 90 86 71 66 66 64 65 69 75 75 75 77 84 74 66 83 90
43 49 59 52 51 62 65 66 77 85 88 89 89 84 85 90 87 88 93 100 99 100 100 100 100 98 100 93 77 68 66 66 66 68 75 74 77 82 89 88 70 74 85
43 55 62 62 67 74 83 81 88 91 90 91 95 93 88 89 95 88 93 98 90 100 100 99 100 100 100 99 82 74 70 71 71 72 74 77 74 79 92 91 87 82 80
52 61 56 60 66 78 83 93 97 98 96 96 92 92 93 91 91 94 91 96 100 94 98 100 100 100 98 99 96 92 84 84 80 79 75 84 85 82 86 89 93 88 75
63 58 60 69 68 83 92 97 100 100 100 98 96 85 86 89 86 86 87 91 96 94 98 94 100 99 100 100 98 100 99 92 85 84 78 87 89 93 93 91 87 77 71
50 56 63 65 74 86 94 95 92 91 97 90 97 98 94 93 96 93 87 83 82 85 90 97 100 100 100 99 92 94 99 99 94 89 90 87 90 94 93 88 82 76 68
50 60 68 74 78 87 97 100 100 99 100 98 92 91 92 94 95 92 95 88 84 83 81 87 99 99 99 100 93 85 99 96 97 97 92 92 91 93 89 85 83 78 70
58 74 77 80 84 89 98 100 99 99 94 79 78 81 83 91 95 96 98 95 87 84 83 82 90 100 98 98 100 88 74 84 88 98 96 94 92 88 86 86 78 74 72
68 77 81 83 86 89 95 100 98 99 89 83 82 85 86 87 93 95 99 98 98 88 84 82 84 94 100 94 97 98 98 90 77 94 96 98 95 91 85 82 83 76 80
74 81 85 86 88 90 91 94 99 99 98 94 95 98 98 93 96 98 97 100 98 99 88 84 82 89 98 95 96 99 86 87 89 80 86 94 86 85 91 89 88 81 83
Wind_Speed
5 6 8 8 7 6 8 11 10 10 11 14 13 14 14 15 15 14 14 14 14 14 12 12 13 13 13 13 14 14 15 16 15 16 15 16 16 15 15 18 17 16 17
6 7 8 8 8 7 6 7 10 11 10 13 14 15 15 16 15 15 14 14 15 13 12 13 13 13 15 15 14 14 14 15 15 16 15 14 14 13 15 16 15 15 15
8 7 7 7 6 7 7 7 7 10 11 12 14 14 14 14 15 14 14 15 14 13 12 14 13 14 13 14 13 12 12 15 14 15 15 11 11 12 13 14 13 14 14
8 7 6 6 6 6 7 8 8 9 11 12 14 15 15 16 16 14 14 14 16 15 14 13 14 14 12 13 12 12 13 14 14 13 9 11 11 12 12 13 12 14 13
7 5 3 4 4 5 6 8 10 10 10 12 14 14 15 15 15 13 15 16 15 15 15 14 14 13 12 12 13 13 13 14 14 9 9 10 12 13 13 16 17 20 18
5 4 1 0 3 6 5 7 9 11 12 12 13 14 15 16 16 16 15 17 15 16 16 15 14 13 14 14 13 13 13 13 12 8 9 11 13 13 13 13 14 15 15
5 4 2 2 2 3 8 7 9 10 12 12 14 14 15 17 17 17 17 18 16 16 16 17 15 14 15 15 13 12 11 12 9 8 11 15 13 13 12 11 12 12 12
4 3 3 2 2 1 4 8 10 11 12 14 15 15 16 16 16 17 16 17 17 17 17 16 16 16 17 15 14 12 10 11 11 11 13 13 13 12 11 9 9 10 11
4 5 4 5 4 4 4 6 10 13 13 14 15 16 16 16 16 16 17 18 19 19 18 17 17 19 18 17 15 13 10 13 12 17 14 11 10 9 7 7 8 10 10
7 8 8 8 8 7 7 8 8 11 15 14 15 15 17 17 16 17 17 18 21 21 20 18 19 20 20 18 16 14 13 13 12 13 9 10 8 8 8 6 9 10 10
9 10 10 9 9 9 10 10 9 8 12 15 16 16 16 17 17 17 17 18 21 22 22 20 22 21 21 18 16 16 16 13 11 10 9 9 8 9 8 8 9 11 11
11 9 10 10 10 10 11 11 9 8 7 10 14 17 17 18 19 18 17 21 22 23 24 22 23 23 21 16 16 18 16 14 15 11 8 10 7 8 10 10 9 13 14
11 10 9 9 8 9 10 10 10 8 7 9 12 16 18 18 19 19 18 20 22 23 26 26 23 24 21 18 18 19 17 16 15 14 11 11 8 10 11 11 13 14 14
11 11 9 9 8 8 10 10 11 11 9 8 9 11 14 17 17 18 19 19 19 20 24 27 25 24 23 20 19 20 18 18 16 14 13 14 11 13 14 14 14 15 15
12 10 10 10 9 9 9 10 11 11 11 9 8 9 12 15 14 16 18 19 18 20 23 27 25 25 25 22 21 21 21 19 17 15 14 16 14 14 18 16 16 15 17
12 11 9 10 10 11 11 10 10 11 11 10 8 7 9 12 15 17 18 17 18 19 23 28 28 27 27 23 23 23 22 20 18 16 14 15 15 14 18 17 17 14 16
11 9 8 8 9 9 10 10 10 10 11 10 9 7 8 10 15 17 19 22 23 23 23 27 26 28 28 23 23 23 22 21 20 18 16 14 15 16 19 18 18 15 16
12 9 7 8 8 9 9 9 9 10 10 10 9 8 8 8 12 17 18 18 21 25 27 26 30 27 25 25 22 22 22 22 21 20 17 15 13 15 21 19 19 20 16
12 10 8 7 8 8 8 9 9 10 11 11 10 10 9 9 10 14 15 15 18 24 28 31 30 32 28 30 26 23 21 21 21 21 19 16 15 17 17 20 20 20 19
12 9 9 8 8 7 8 7 8 9 11 12 12 12 11 12 12 14 16 13 13 19 21 23 31 31 33 24 22 25 24 20 19 20 20 16 15 19 18 22 22 19 18
11 9 8 7 7 6 7 6 8 9 12 13 14 16 14 13 14 15 16 17 16 17 15 21 22 31 20 27 27 14 17 19 18 19 20 16 17 18 21 20 23 20 18
8 7 8 9 7 8 8 8 7 6 9 12 12 13 14 15 16 15 17 18 19 19 20 19 26 18 21 36 20 23 2 6 13 17 17 17 18 20 20 24 23 22 19
6 6 7 7 8 8 8 8 7 8 10 10 12 13 13 14 16 19 17 19 20 21 22 21 22 28 15 25 27 14 4 3 8 10 18 17 17 19 19 24 25 24 21
5 5 5 6 7 8 9 9 11 12 12 14 11 10 12 13 15 18 20 20 22 23 24 24 25 27 27 25 28 29 18 14 5 3 8 14 15 20 19 20 25 24 23
4 4 5 5 6 8 10 11 12 15 15 15 14 13 14 16 17 19 21 24 24 25 25 25 25 29 29 30 29 29 16 13 17 4 5 6 11 18 18 19 21 25 19
2 2 5 6 6 8 11 13 15 16 16 15 16 15 16 17 19 19 20 23 27 26 27 29 30 29 33 30 31 28 31 18 16 12 4 8 15 17 16 17 20 26 20
Wind_Direction
114 153 161 166 161 149 147 160 151 152 161 172 171 161 153 151 153 146 139 135 132 133 143 139 136 133 129 123 121 122 123 123 125 122 119 118 114 113 112 105 104 107 107
109 136 162 162 171 174 167 164 170 160 165 170 172 169 164 158 151 152 148 145 143 142 145 148 145 139 133 126 128 134 140 142 136 133 128 123 120 120 126 118 116 118 109
122 124 137 159 171 181 186 195 182 178 171 176 175 178 170 169 160 162 159 155 153 150 141 144 141 136 131 133 135 139 139 143 143 138 118 120 124 122 125 130 130 121 121
126 125 120 149 171 184 191 206 202 199 192 188 187 183 181 177 173 172 169 166 162 157 159 151 147 147 150 153 152 148 141 146 148 128 125 129 125 126 114 129 126 155 135
119 122 137 161 177 190 206 210 210 207 204 207 197 193 189 181 181 183 179 174 172 172 175 173 169 169 163 161 156 157 152 151 153 129 141 140 138 123 117 109 111 105 108
124 116 106 116 259 237 221 220 222 222 214 215 210 206 197 194 188 190 188 179 181 181 181 179 182 175 168 161 157 159 162 158 150 158 157 154 144 141 139 127 124 116 117
136 127 103 73 23 248 240 239 231 229 228 224 218 211 207 205 200 197 195 186 186 186 186 187 177 174 168 162 158 161 167 169 164 170 166 144 137 132 129 130 128 129 129
172 183 203 237 307 300 245 246 246 239 232 231 227 221 216 210 209 205 200 195 194 196 184 183 182 175 171 169 158 158 163 169 167 168 147 139 148 139 137 138 140 143 144
206 224 247 260 258 270 268 254 248 244 241 235 234 229 221 218 211 208 205 203 201 201 201 196 188 182 179 176 174 161 159 156 160 157 145 141 152 149 157 158 155 156 157
243 242 242 248 253 262 274 276 265 244 237 238 235 232 227 223 221 218 215 212 210 208 206 200 194 189 186 187 187 176 164 159 165 153 158 155 163 158 160 164 158 159 156
259 247 242 243 250 254 259 268 275 265 243 234 234 234 229 225 225 221 216 215 218 211 208 202 197 195 192 193 193 190 177 180 178 167 168 176 171 168 170 165 161 159 156
249 247 244 247 247 249 253 254 265 269 254 240 236 231 224 224 225 221 221 219 222 219 212 207 202 199 196 195 197 196 189 194 192 190 190 181 184 183 181 176 169 162 158
252 256 252 246 246 253 255 252 251 257 257 247 239 237 234 230 225 223 225 224 219 221 214 208 202 204 196 198 198 194 201 196 196 198 203 190 191 188 197 185 172 167 171
246 250 245 245 257 266 262 256 248 246 249 249 246 237 239 237 231 226 222 222 219 217 213 202 196 199 198 203 203 200 202 201 202 202 202 194 182 194 183 174 171 174 175
248 248 243 247 256 270 271 261 249 241 242 243 241 241 242 238 239 233 229 226 222 217 207 199 196 197 196 204 205 206 204 205 206 204 201 195 186 205 182 175 182 181 179
242 247 245 248 259 264 273 269 248 239 235 235 237 241 240 240 249 247 239 231 225 215 210 203 200 200 195 200 206 206 206 205 206 202 195 194 192 198 189 177 173 162 162
239 243 244 257 269 265 264 260 247 234 228 230 231 235 237 239 236 245 246 245 235 225 216 211 204 201 193 196 204 208 206 207 204 202 195 191 194 198 201 187 185 170 158
245 239 244 268 270 271 267 259 240 230 225 224 224 230 234 239 236 239 244 240 241 234 220 208 207 202 190 190 195 209 210 206 205 201 196 191 192 194 197 194 192 182 176
234 243 260 268 271 264 259 255 240 230 225 227 227 228 231 233 233 238 240 238 234 225 223 219 208 203 199 193 185 203 208 210 203 199 196 199 196 197 193 189 188 183 182
226 238 262 275 278 267 254 242 236 230 229 227 229 232 231 235 238 240 240 240 235 243 225 220 211 203 199 194 190 189 193 207 202 198 198 196 196 191 191 189 187 185 193
220 233 246 259 270 250 249 229 238 232 229 235 234 239 241 243 241 240 244 245 240 238 242 230 218 196 188 181 166 174 178 202 200 198 199 196 195 188 184 178 186 184 184
216 238 253 265 261 243 227 233 229 238 239 239 235 236 241 246 248 245 241 244 240 237 236 233 217 206 192 183 178 169 176 163 203 198 188 198 195 183 184 189 192 192 182
215 234 258 271 257 231 217 213 236 244 252 247 240 244 244 244 247 248 243 243 243 238 234 228 221 211 193 192 183 173 147 177 157 183 194 206 192 185 189 190 193 194 189
209 240 266 272 260 228 216 209 222 229 242 250 249 252 265 261 251 248 248 242 241 239 238 231 224 215 202 196 198 201 201 145 181 156 173 213 195 198 195 190 194 198 199
206 257 262 264 261 241 231 231 223 233 245 250 253 261 270 266 259 251 243 245 236 238 236 234 226 214 205 202 201 191 190 176 179 149 162 175 197 203 204 202 199 201 192
117 269 265 266 268 255 247 243 240 242 243 246 251 258 266 272 264 252 249 243 241 237 237 235 231 220 210 208 200 196 198 191 182 175 147 169 192 206 205 200 198 195 199